Theta_e
331 329 331 335 341 340 348 346 340 342 344 348 349 350 348 339 345 345 352 348 331 326 325 321 319 321 322 322 323 323 324 326 327 328 328 329 330 331 333 336 336 337 336 336 337 338 338 338 338
331 330 331 335 339 344 350 346 342 340 345 347 349 350 348 345 342 352 351 348 336 326 325 321 318 321 322 322 323 324 325 326 327 328 329 329 331 333 335 336 337 337 337 337 337 338 338 337 337
329 330 333 328 331 341 343 345 342 344 346 345 344 347 348 341 343 352 351 347 330 328 327 322 318 321 322 322 323 323 325 327 328 328 330 331 332 334 334 334 336 337 338 338 338 337 336 337 339
328 331 334 329 333 339 338 343 345 344 346 343 344 340 345 341 350 351 349 347 329 330 327 323 319 320 322 322 323 323 325 326 328 328 329 330 332 333 333 333 333 333 334 335 335 334 336 339 338
328 329 327 328 330 338 344 348 345 346 347 347 341 339 338 340 349 348 348 348 346 333 327 323 320 320 322 322 323 323 325 326 327 327 328 328 329 330 331 331 330 330 331 331 332 334 336 337 338
326 329 325 327 333 344 344 349 347 347 347 345 343 339 340 344 345 348 348 346 346 333 326 323 320 319 321 322 323 323 324 326 326 327 327 328 327 328 328 328 329 330 331 331 331 332 333 335 337
324 323 325 326 328 344 344 344 346 345 343 349 347 341 341 341 344 346 347 349 348 327 325 324 320 320 320 322 322 323 323 325 326 327 327 328 328 329 329 329 329 328 328 327 326 326 328 334 336
322 322 324 325 330 345 344 344 342 341 343 338 345 345 344 341 345 345 345 344 337 340 329 322 324 320 320 321 322 322 323 323 324 325 326 327 327 328 337 332 328 330 327 327 326 325 324 325 330
322 318 322 325 336 346 347 345 347 344 338 337 345 345 343 341 340 346 345 346 346 346 344 341 340 342 342 336 327 321 322 323 323 324 324 325 325 334 342 343 340 333 338 334 334 334 335 330 340
319 318 323 329 347 349 347 348 343 348 345 343 346 343 340 339 338 339 344 347 347 347 348 346 344 345 345 340 336 327 322 325 323 323 324 325 332 339 341 342 341 340 339 336 337 337 341 342 344
320 318 323 337 347 349 348 348 345 346 346 344 342 339 342 342 341 340 341 341 340 338 338 341 339 342 344 345 339 340 339 339 338 340 341 333 337 342 343 344 344 341 340 338 337 337 340 342 345
317 321 325 342 343 345 346 342 345 345 343 340 337 336 338 339 339 340 342 342 341 337 336 335 338 341 341 342 342 341 341 341 340 341 343 342 338 339 341 340 341 340 340 338 336 336 337 337 345
318 320 336 342 341 340 340 338 337 335 335 335 333 333 332 333 334 336 338 340 342 341 340 338 334 333 340 339 338 338 338 338 339 338 343 343 341 339 344 343 341 340 339 336 335 335 334 334 340
322 322 334 337 336 336 335 334 333 331 329 327 327 326 326 327 328 331 335 336 339 341 341 342 341 334 334 339 338 337 337 337 337 337 336 336 340 339 337 338 340 337 337 337 336 335 334 334 333
322 322 332 334 334 333 333 332 331 328 327 325 324 323 322 322 324 326 328 331 333 335 339 339 340 344 339 334 339 339 339 340 340 340 339 337 337 338 338 337 334 335 336 336 336 335 334 333 333
318 319 326 331 331 333 331 333 329 327 326 324 323 322 321 319 319 319 322 326 328 330 333 336 337 336 342 343 344 344 345 345 343 341 340 340 339 339 339 339 340 340 338 339 338 337 336 335 334
317 316 318 329 330 330 329 331 330 328 326 324 322 321 319 318 317 317 317 320 326 327 330 332 333 335 337 341 343 345 344 344 344 345 342 342 340 340 340 340 339 338 338 338 338 338 338 339 341
318 317 317 321 327 327 328 328 328 327 326 324 322 320 318 317 316 315 315 316 316 316 320 323 324 331 334 336 338 340 341 343 342 343 340 341 342 341 341 340 341 342 343 344 342 341 340 343 345
320 319 318 319 326 327 327 328 327 326 325 323 321 319 317 316 315 315 314 314 313 312 312 312 313 315 325 331 334 334 335 336 336 338 338 337 338 337 339 342 341 341 342 342 342 344 344 344 345
321 319 327 326 325 325 327 326 324 324 323 323 321 319 317 315 314 314 313 313 313 312 311 309 309 309 310 313 315 324 322 323 324 323 323 327 324 325 331 334 334 333 334 335 338 339 340 341 339
320 319 325 326 327 326 326 325 324 323 324 323 320 319 317 315 314 313 312 312 312 311 310 309 308 308 307 308 309 311 312 312 311 310 309 310 310 310 311 313 314 315 315 319 323 328 332 333 331
319 320 322 327 325 324 324 324 323 322 320 319 318 317 315 314 314 313 311 311 311 311 309 308 307 307 307 307 307 307 308 309 309 308 308 309 309 309 309 309 309 308 307 307 307 307 310 317 322
320 321 320 324 325 324 325 322 322 322 320 318 316 316 315 313 313 312 310 310 310 309 309 308 307 307 306 306 305 306 307 308 307 307 307 307 307 307 306 305 304 304 304 304 304 305 306 306 306
323 321 320 320 321 327 324 324 322 323 322 318 317 314 313 312 311 311 310 310 309 309 309 308 308 307 306 306 305 305 306 306 306 305 305 304 304 304 304 303 303 303 303 303 303 303 303 303 304
321 320 323 323 320 322 325 324 322 323 321 319 314 314 312 312 311 311 310 310 309 309 308 308 308 307 306 306 307 306 306 306 305 305 304 302 301 302 302 301 302 303 303 303 303 303 303 303 303
320 321 322 326 326 323 324 327 322 321 321 316 314 313 312 312 311 310 309 309 309 308 308 307 307 307 307 307 307 307 305 305 305 305 304 303 302 301 300 299 299 301 301 302 302 303 302 302 302
322 323 323 324 323 324 325 322 319 318 315 314 313 313 311 310 310 310 309 308 308 308 307 307 307 306 306 306 307 307 305 304 304 304 303 302 302 301 301 301 301 298 299 299 300 300 301 300 300
323 324 322 320 327 328 328 327 320 315 314 312 312 312 311 310 309 309 309 307 307 307 307 306 306 306 306 305 306 306 305 304 305 304 303 301 300 300 301 302 300 298 298 298 300 299 296 298 299
326 324 326 322 320 323 328 332 318 315 314 313 313 311 311 310 309 309 308 307 306 307 307 306 305 305 305 305 305 305 305 305 303 302 300 301 300 299 301 301 300 299 298 298 298 298 298 298 299
327 327 328 329 328 326 330 324 322 316 314 314 312 311 311 310 309 308 308 307 306 306 306 305 305 305 304 305 305 305 304 304 303 301 297 300 299 297 300 300 300 298 296 295 298 298 298 298 299
Wind_Speed
19 19 11 7 2 4 15 8 4 4 19 42 31 20 15 17 4 11 24 19 18 18 18 16 16 17 18 18 17 16 16 15 15 17 18 19 18 17 15 15 15 15 15 15 14 14 14 14 15
20 22 9 6 2 4 6 11 10 5 24 37 31 30 25 16 23 31 25 17 16 19 18 17 16 17 17 17 16 16 15 15 14 15 17 16 16 14 14 13 12 12 12 11 10 11 11 11 11
21 20 3 4 3 10 8 18 8 18 22 24 9 22 13 15 19 19 23 17 19 19 18 17 17 17 17 17 16 16 15 14 13 14 15 15 14 12 11 10 10 9 9 8 7 7 7 8 10
15 5 6 4 8 23 8 13 20 19 29 25 5 8 24 22 23 26 18 12 19 19 17 17 16 16 16 16 16 15 15 14 12 12 12 12 11 10 8 7 7 7 6 5 5 5 5 6 8
18 9 2 6 17 4 22 35 31 19 14 37 14 15 23 26 29 24 16 12 9 15 16 16 14 14 15 15 15 15 14 13 11 10 10 10 8 7 6 5 4 5 4 4 4 4 4 5 7
11 6 4 7 15 8 22 40 44 38 44 23 22 18 22 22 23 29 19 11 8 9 14 14 14 13 13 13 13 13 12 11 10 9 8 7 7 5 5 4 4 4 4 5 4 4 4 4 6
9 2 8 12 16 5 12 29 34 35 43 16 5 8 20 19 25 27 20 12 6 11 11 13 13 13 12 11 11 10 10 9 7 6 6 5 4 4 4 4 4 5 5 6 6 6 6 4 4
19 1 11 11 7 5 6 16 36 23 13 24 20 9 7 22 27 22 11 6 14 18 15 14 13 12 11 9 8 8 7 7 6 4 4 3 3 6 6 6 5 9 9 9 9 8 8 6 3
19 3 7 14 5 7 18 30 28 23 27 12 14 21 18 20 21 22 18 13 12 12 16 16 14 10 9 10 7 3 4 4 3 3 2 2 2 0 4 5 8 9 11 10 11 8 8 5 5
5 2 8 7 22 21 33 37 37 22 10 15 21 25 25 24 22 21 22 18 14 14 8 9 10 5 5 7 11 6 4 2 2 3 3 2 2 4 7 11 10 12 11 11 11 10 7 8 6
16 8 5 11 36 42 33 31 30 31 12 14 15 25 28 31 29 27 25 27 25 24 22 23 20 21 10 4 5 6 6 6 7 6 8 4 5 4 9 12 13 14 9 14 13 12 13 15 9
8 18 10 19 34 36 28 21 22 23 15 23 19 20 22 25 23 23 21 20 22 20 18 16 20 18 16 15 9 1 3 3 6 8 8 11 10 9 10 8 10 13 11 13 13 15 15 19 11
7 14 17 32 36 36 33 22 21 23 23 20 19 17 17 15 15 15 15 15 13 17 17 17 15 18 17 18 15 13 11 6 3 4 4 9 11 9 9 11 14 15 15 13 13 16 17 17 14
19 17 24 27 29 33 30 23 10 20 20 19 17 16 15 12 8 7 9 10 11 10 12 15 16 15 16 17 14 13 10 7 4 6 8 9 8 15 16 18 17 15 11 13 15 16 19 20 20
19 7 15 20 22 18 31 10 12 21 18 20 17 13 12 10 4 4 4 6 7 7 7 9 9 13 14 14 13 13 12 10 10 9 12 14 15 13 8 7 12 16 16 16 17 20 21 20 17
8 5 7 11 17 21 8 9 17 24 22 21 19 14 10 10 8 5 2 2 3 4 5 5 4 3 11 12 15 15 11 11 12 13 12 10 13 15 14 13 13 13 14 16 18 19 20 18 19
7 5 6 7 18 8 6 11 16 23 23 22 20 16 12 10 7 5 4 4 4 4 4 4 3 4 8 14 15 15 11 12 13 15 16 15 14 12 11 12 16 18 18 20 21 20 20 18 18
8 6 7 8 13 10 11 9 15 24 23 22 22 19 15 10 7 5 4 5 5 6 6 6 6 6 7 11 13 13 13 14 13 14 10 9 12 12 12 15 16 19 20 20 21 23 21 21 24
11 7 16 11 14 12 11 14 13 19 21 21 22 20 16 11 7 4 4 4 6 6 6 7 7 7 6 8 8 8 9 9 9 10 13 11 12 12 13 18 21 21 20 22 22 25 27 26 27
16 11 3 6 19 9 15 10 8 13 15 22 22 21 18 15 10 7 5 6 6 7 8 8 9 8 6 6 7 7 4 2 4 5 7 7 10 12 15 16 17 19 20 22 24 28 30 31 28
11 11 6 9 5 17 16 8 12 11 16 23 23 21 20 19 13 8 7 6 5 7 9 10 10 10 9 8 6 4 1 1 1 5 5 8 7 9 11 14 16 17 18 19 19 21 25 30 28
8 10 6 16 6 6 8 5 12 13 9 14 24 22 21 19 14 11 8 7 4 9 11 11 12 12 13 11 9 8 9 8 11 11 10 6 7 11 13 17 19 19 19 18 19 19 20 22 27
7 6 6 7 13 6 8 2 7 15 11 12 22 22 18 17 15 11 8 5 6 9 11 12 12 12 12 12 12 12 12 13 13 12 10 10 9 12 15 17 18 19 18 18 18 19 19 20 22
6 7 9 7 8 9 11 10 6 19 24 14 21 27 23 18 14 12 11 9 8 9 11 12 12 13 13 12 13 13 14 13 13 15 15 16 16 17 18 20 20 20 20 22 21 21 20 20 19
5 3 3 3 6 5 13 9 4 15 22 21 24 29 25 20 15 14 13 10 7 7 7 10 12 13 13 12 13 12 12 11 14 15 16 17 19 19 19 20 20 20 21 21 21 21 21 22 24
8 9 6 7 4 8 6 2 9 3 28 35 34 30 22 22 20 15 13 10 6 5 4 8 9 12 13 13 11 12 12 11 12 15 18 20 21 22 22 22 21 20 20 20 20 21 23 25 27
10 4 7 8 9 7 5 5 10 17 22 29 29 28 26 21 15 12 9 6 6 5 5 8 7 8 10 11 8 13 14 15 12 15 17 19 20 23 26 28 28 29 25 29 27 28 29 32 34
6 1 3 3 4 9 5 5 9 8 15 16 18 24 24 18 15 12 9 7 7 5 6 7 6 6 8 9 8 12 13 15 12 14 18 19 18 19 19 24 29 31 28 27 23 23 33 38 39
6 4 5 2 3 5 3 3 13 21 18 17 21 26 22 20 17 13 12 10 7 6 5 6 5 6 8 8 8 12 14 15 14 15 17 17 19 19 17 21 26 26 32 25 24 26 36 40 41
6 12 5 3 7 3 2 3 6 15 21 25 24 27 22 21 20 17 12 11 7 4 5 6 4 3 7 7 8 11 11 13 16 19 20 15 19 17 15 20 26 29 31 28 23 31 36 40 42
Wind_Direction
331 335 328 302 20 88 325 277 256 347 70 78 93 116 76 35 96 133 146 151 136 138 130 125 124 121 115 110 107 107 106 106 107 107 105 107 107 107 100 97 97 94 94 93 90 84 80 78 81
322 324 306 285 202 123 197 266 270 25 101 87 85 90 72 70 92 123 132 134 143 140 130 128 127 123 118 115 114 111 108 108 111 112 111 111 110 108 103 99 96 95 96 94 90 81 76 74 71
318 321 240 181 248 246 184 195 121 56 51 76 84 61 77 117 125 133 129 131 143 136 130 128 129 129 125 121 120 116 114 115 116 116 116 116 115 112 107 104 102 98 97 94 90 78 71 68 69
326 312 246 179 210 261 265 129 81 40 40 35 59 48 86 115 121 125 123 126 140 134 133 131 134 133 128 125 123 121 123 123 125 125 123 120 119 117 109 101 98 96 93 87 79 69 63 62 58
317 257 253 290 267 129 72 87 83 80 78 14 32 92 91 114 116 120 121 112 120 140 136 133 132 132 130 131 130 130 128 128 130 131 125 121 119 116 105 93 77 72 64 56 54 49 43 46 51
292 302 333 288 292 84 88 93 90 82 76 24 65 95 106 123 118 126 135 117 111 128 136 132 130 130 132 132 133 131 132 135 138 134 129 126 119 108 92 78 57 44 31 15 16 12 1 20 37
259 286 264 286 292 90 123 96 103 106 112 123 85 123 135 146 136 131 130 133 100 110 124 123 125 128 131 133 133 134 138 137 142 142 133 128 115 92 60 38 28 8 355 348 344 345 341 353 3
287 291 286 289 281 76 42 87 103 94 116 127 153 140 132 120 126 130 123 124 95 87 99 110 100 113 111 114 129 141 143 142 143 144 142 135 111 78 44 6 1 355 349 338 336 337 339 336 321
283 305 292 287 37 70 75 80 71 111 130 173 160 126 134 133 135 137 139 130 105 95 89 81 72 88 82 72 53 130 145 146 151 163 172 147 122 52 3 344 346 351 4 356 346 348 360 355 350
218 242 258 283 97 97 82 86 94 81 119 128 138 149 153 142 141 127 134 145 130 146 112 89 76 130 78 49 40 61 99 68 220 230 239 244 112 3 334 335 357 339 336 359 0 2 8 346 342
254 239 299 51 97 101 100 107 132 143 81 76 90 86 100 108 112 118 114 104 113 128 142 147 142 134 128 151 53 29 38 34 19 16 1 335 251 267 291 301 304 327 324 326 326 335 338 332 318
253 260 245 85 96 102 107 100 85 93 108 108 96 96 105 106 106 108 116 114 125 146 148 155 170 166 140 148 118 115 356 332 355 343 341 343 325 271 253 264 298 301 310 321 325 320 320 322 311
249 250 109 114 108 112 115 110 102 91 100 104 100 96 89 98 108 118 123 126 128 136 150 174 168 183 173 165 166 163 145 107 63 19 332 314 313 294 266 260 262 264 275 300 301 304 304 302 315
250 234 118 111 107 109 111 125 101 118 116 100 94 80 88 96 104 134 144 141 147 150 159 169 183 187 191 182 182 184 186 166 162 192 236 247 273 290 284 261 257 262 259 270 277 280 281 274 282
281 119 113 127 137 127 112 82 111 127 118 108 96 81 74 70 89 103 154 170 179 181 191 193 191 199 197 194 197 193 177 187 208 211 223 229 242 251 263 293 288 264 257 261 266 269 274 277 281
297 139 140 172 137 163 145 142 142 142 135 126 121 117 103 84 77 46 54 157 174 197 204 210 214 218 206 188 188 187 194 205 212 224 232 238 242 249 254 252 255 261 257 264 265 265 266 274 284
271 214 206 165 158 155 149 144 153 156 145 140 137 135 126 112 95 81 25 60 96 107 127 130 145 158 166 189 190 193 196 208 226 229 232 241 248 243 237 241 259 274 270 268 272 269 274 277 281
243 195 269 174 191 163 150 144 152 161 154 151 143 136 129 118 103 88 60 49 61 74 85 95 98 123 147 174 184 197 216 220 234 241 270 272 268 272 268 262 266 268 272 272 270 272 265 275 274
253 216 222 242 179 153 154 142 161 163 160 152 141 137 131 123 122 104 78 44 48 61 73 83 94 107 130 141 176 191 217 233 255 276 289 304 291 298 281 266 270 278 282 280 282 279 275 272 278
253 254 110 353 148 96 132 146 149 164 171 161 158 148 144 140 131 107 68 49 44 50 61 70 77 79 84 102 124 139 166 199 266 299 311 301 316 309 293 290 291 300 298 291 284 280 286 285 291
246 236 177 162 126 122 131 147 170 187 175 169 160 158 156 149 136 121 105 60 42 49 51 60 61 65 66 77 93 109 148 57 14 14 355 12 351 322 312 307 308 310 311 308 304 294 294 293 300
249 255 209 147 125 175 163 199 190 178 156 145 143 140 134 137 137 130 112 96 35 41 37 49 55 55 57 56 58 59 52 36 25 13 14 4 353 321 323 325 325 324 322 315 314 311 307 300 302
223 287 282 148 171 156 204 126 210 163 172 170 150 154 156 145 147 143 128 99 48 36 32 45 51 55 54 54 52 53 53 42 28 27 28 20 6 348 352 349 347 345 344 339 332 324 316 311 304
212 262 269 243 175 215 189 187 183 179 191 161 145 142 141 141 140 136 135 117 80 39 29 33 40 48 46 43 45 45 46 35 31 28 31 28 19 17 17 12 7 3 359 356 354 350 342 335 318
178 211 270 313 249 214 198 205 136 220 177 153 137 142 145 146 147 151 141 126 109 90 45 30 32 38 39 41 36 33 36 27 20 19 20 15 14 13 16 17 18 17 13 6 359 354 348 342 336
230 174 168 238 238 256 223 309 334 109 131 130 134 137 143 147 142 126 112 112 102 110 62 66 39 34 34 46 31 19 21 24 23 15 7 6 7 6 3 4 5 5 5 3 7 8 5 359 351
234 238 211 225 250 265 135 90 28 101 117 124 131 138 127 122 126 142 121 119 100 87 77 74 59 51 47 47 25 6 14 25 35 14 10 8 3 2 2 0 0 359 3 1 358 357 357 355 354
140 203 1 333 204 242 86 138 149 130 116 120 125 122 127 132 132 141 149 120 109 105 90 86 64 47 42 41 19 8 11 16 37 6 1 5 7 5 8 356 353 350 357 354 357 356 352 350 349
4 5 8 262 170 193 227 212 176 154 147 144 139 139 143 153 154 155 146 130 125 102 54 76 61 36 31 44 14 2 11 8 8 0 1 1 358 360 13 354 353 355 349 352 352 345 349 350 348
10 16 69 94 317 293 149 264 192 164 146 145 142 146 159 151 154 147 140 138 135 115 60 74 58 37 26 49 12 2 6 356 352 1 0 349 352 358 7 0 347 352 348 349 346 336 346 348 347